BREEZE-M R/B, 40365

Orbit data source: Space-Track

BREEZE-M R/B, 40365 is space debris in HEO originally from a launch on Sat, 27 Dec 2014 UTC launched from the Tyuratam Missile And Space Complex (TTMTR). Debris objects in space refer to the collection of defunct objects orbiting the Earth. Examples of debris include non-operational satellites, rocket bodies, and fragments generated from explosions, collisions, or faulty payload assembly.

Loading next visibility...
Identifier
40365, 2014-089B
Orbit
HEO
Country
Flag of CISCIS
Related business
Manufacturer
Khrunichev
Mission
Spacecraft
Bus & Motor
BRIZ, Unknown motor
Mass
~1,600 kg wet, 1,600 kg dry
Launch date (UTC)
2014-12-27 (11 years ago)
Launch vehicle
Unknown
Launch site
Tyuratam Missile And Space Complex (TTMTR)
Object type
Payload
Rocket body
Debris
Shape & HBR
Cyl, 2.0 m
Radar Cross Section
15.135 m², Large (>1 m²)

Expand to show TLE details & history
Last TLE update: 3 days ago

TLE from 3 days ago
0 BREEZE-M R/B
1 40365U 14089B   26170.86021455 -.00000107  00000-0  00000+0 0  9995
2 40365  23.9129 330.6602 6070487 351.4914   1.5138  2.19523446 91885
Epoch: 2026-06-19T20:38Z
TLE epoch observation values (Epoch: 2026-06-19T20:38:42.537Z)
Latitude
0.00046°
Longitude
112.89067°
Altitude
3,498.718 km
Speed
8.048 km/s
True Right ascension
22h 02m 36s
True Declination
0° 00' 02"
Sunlit
Object was in daylight at epoch
Visualization orbit readout
Latitude
Unknown
Longitude
Unknown
Altitude
Unknown
Speed
Unknown
Apparent Right ascension
Unknown
Apparent Declination
Unknown
Sunlit
N/A
Visualization observer readout
Local Sidereal Time
23:20:30
Azimuth
Unknown
Elevation
Unknown
Doppler factor
Unknown
Orbital elements
Apogee altitude
33,815.422 km
Perigee altitude
3,449.886 km
Semi-major axis
25,010.791 km
Eccentricity
0.60705
Inclination
23.9129°
RAAN
330.6602°
Arg. of periapsis
351.4914°
True anomaly
7.77262°
Mean anomaly
1.5138°
Eccentric anomaly
3.84792°
Mean motion
0.54872 °/min
Orbital period
656.07 mins
BSTAR
0
Loading maneuver chart data...
Computing Atmospheric mass density...
Loading historical data...
Loading historical data...
Loading historical data...
Loading historical data...
Loading historical data...
Loading historical data...
Loading historical data...
Other satellites on launch #89 in the year 2014 (2014-12-27 UTC)

Documentation

Showing up to 5 results
|